Regional Weather Roundup
Issued by NWS

Home | Current Version | Previous Version | Graphics & Text | Print | Product List | Glossary On
Versions: 1 2 3 4 5 6 7 8 9 10 11 12 13 14 15 16 17 18 19 20 21 22 23 24 25 26 27
000
ASUS45 KPSR 261410
RWRAZ

ARIZONA HOURLY REGIONAL WEATHER ROUNDUP
NATIONAL WEATHER SERVICE PHOENIX AZ
700 AM MST THU MAY 26 2016

NOTE: FAIR INDICATES FEW OR NO CLOUDS BELOW 12,000 FEET WITH NO
SIGNIFICANT WEATHER AND/OR OBSTRUCTIONS TO VISIBILITY.

AZZ001>003-036-261500-
NORTHWEST ARIZONA

CITY           SKY/WX    TMP DP  RH WIND       PRES   REMARKS
BULLHEAD CITY  SUNNY     66  34  30 CALM      29.93R
KINGMAN        SUNNY     59  32  36 S3        29.98R
$$

AZZ004>008-015-016-018-261500-
NORTH CENTRAL ARIZONA

CITY           SKY/WX    TMP DP  RH WIND       PRES   REMARKS
GRAND CANYON   CLOUDY    45  29  53 CALM      30.06R
WILLIAMS       MOSUNNY   46  28  49 N8        30.14R
PRESCOTT       MOSUNNY   49  26  41 S6        30.03R
FLAGSTAFF      MOSUNNY   47  23  38 W5        30.06S
PAYSON         MOSUNNY   48  23  37 CALM      30.06R
PAGE           MOSUNNY   64  27  24 VRB5      29.90R
$$

AZZ009>014-017-261500-
NORTHEAST ARIZONA

CITY           SKY/WX    TMP DP  RH WIND       PRES   REMARKS
WINSLOW        PTSUNNY   55  21  26 SW21G28   29.99R
SAINT JOHNS    SUNNY     53  10  18 SW10      30.04R
WINDOW ROCK    SUNNY     50  19  29 SW8       30.05R
SHOW LOW       SUNNY     45  14  29 S13       30.08R
$$

AZZ023-261500-
GREATER PHOENIX AREA

CITY           SKY/WX    TMP DP  RH WIND       PRES   REMARKS
PHOENIX        MOSUNNY   67  38  34 SE9       29.92R
GLENDALE       SUNNY     66  39  37 SW9       29.94R
LUKE AFB       SUNNY     66  40  37 SW15      29.92R
DEER VALLEY    SUNNY     66  35  31 NE5       29.94R
SCOTTSDALE     SUNNY     65  34  31 SE5       29.95R
CHANDLER       SUNNY     66  37  34 SE8       29.94R
$$

AZZ027-028-261500-
SOUTHWEST MARICOPA COUNTY AND PINAL COUNTY

CITY           SKY/WX    TMP DP  RH WIND       PRES   REMARKS
CASA GRANDE    SUNNY     63  34  34 CALM      29.96R
GILA BEND      SUNNY     64  36  36 N1        29.93R
$$

AZZ503-504-507>509-261500-
SOUTHEAST ARIZONA

CITY           SKY/WX    TMP DP  RH WIND       PRES   REMARKS
TUCSON         SUNNY     60  26  27 CALM      30.01R
DAVIS-MONTHAN  SUNNY     61  26  26 S2        29.99R
RYAN FIELD     SUNNY     55  27  33 N3        30.01R
NOGALES        SUNNY     56  27  32 CALM      30.03R
SIERRA VISTA   SUNNY     56  26  31 NW5       30.06R
DOUGLAS        SUNNY    N/A N/A N/A NW7       30.03S
SAFFORD        SUNNY     64  22  20 W12       29.98R
$$

AZZ020-021-025-026-031-261500-
SOUTHWEST ARIZONA

CITY           SKY/WX    TMP DP  RH WIND       PRES   REMARKS
YUMA           SUNNY     63  43  48 W7        29.94R
$$

CAZ031-033-041-043-047-048-061-261500-
SOUTHERN CALIFORNIA

CITY           SKY/WX    TMP DP  RH WIND       PRES   REMARKS
DOWNTOWN L.A.  PTSUNNY   59  50  72 E3        30.07R
L.A. AIRPORT   PTSUNNY   59  53  80 VRB5      30.07R
SAN DIEGO      CLOUDY    63  52  67 SW7       30.09R
BURBANK        PTSUNNY   56  49  77 CALM      30.07R
ONTARIO        MOSUNNY   55  48  77 CALM      30.08R
RIVERSIDE      SUNNY     55  49  80 CALM      30.08R
PALM SPRINGS   SUNNY     64  43  46 CALM      29.95R
EL CENTRO NAS  MOSUNNY   64  42  44 SW6       29.95R
IMPERIAL       SUNNY     63  43  48 W3        29.93R
BLYTHE         SUNNY     62  45  53 CALM      29.92R
NEEDLES        SUNNY     68  38  33 CALM      29.91R
$$

NVZ020-UTZ003-261500-
SOUTHERN NEVADA-UTAH

CITY           SKY/WX    TMP DP  RH WIND       PRES   REMARKS
LAS VEGAS      SUNNY     63  36  36 S5        29.90R
SALT LAKE CITY MOSUNNY   54  45  71 CALM      30.01R
$$

NMZ009-TXZ055-261500-
NEW MEXICO-WEST TEXAS

CITY           SKY/WX    TMP DP  RH WIND       PRES   REMARKS
ALBUQUERQUE    MOSUNNY   59  18  20 S6        29.99S
EL PASO        MOSUNNY   71  31  22 W24G31    29.98R
$$


........................KEY........................
SKY/WX - SKY CONDITION/WEATHER
TMP    - TEMPERATURE IN FAHRENHEIT
DP     - DEW POINT IN FAHRENHEIT
RH     - RELATIVE HUMIDITY IN PERCENT
WIND   - DIRECTION AND SPEED IN MILES PER HOUR (MPH)
VRB    - VARIABLE WIND DIRECTION
PRES   - MEAN SEA LEVEL PRESSURE IN INCHES OF MERCURY
         F - FALLING PRESSURE   R - RISING PRESSURE
         S - STEADY PRESSURE
VSB    - VISIBILITY IN MILES
HX     - HEAT INDEX IN FAHRENHEIT
WCI    - WIND CHILL INDEX IN FAHRENHEIT
TC     - TEMPERATURE IN CELSIUS WHICH IS ALSO KNOWN AS
         TEMPERATURE IN CENTIGRADE
AFB    - AIR FORCE BASE
         LUKE AFB IS LUKE AIR FORCE BASE
         DAVIS-MONTHAN IS DAVIS-MONTHAN AIR FORCE BASE
NAS    - NAVAL AIR STATION
         EL CENTRO NAS IS EL CENTRO NAVAL AIR STATION
N/A    - NOT AVAILABLE





USA.gov is the U.S. government's official web portal to all federal, state and local government web resources and services.